DW8266 Weather Reports


time (UTC)temp
F
wind
direction
speed
knots
gust
knots
rain 1hr
in
rain 24hr
in
rain mn
in
humidity
%
barometer
mb
20260507210058 80 54 0.9 7.8 0.00 0.00 0.00 73 1013.9
20260507204605 79 72 0.0 2.6 0.00 0.00 0.00 73 1013.9
20260507203107 79 83 1.7 3.5 0.00 0.00 0.00 73 1014.1
20260507201605 79 170 0.9 4.3 0.00 0.00 0.00 74 1014.0
20260507200001 78 108 0.9 5.2 0.00 0.00 0.00 75 1014.1
20260507194501 77 143 0.0 3.5 0.00 0.00 0.00 76 1014.3
20260507193103 77 170 0.9 5.2 0.00 0.00 0.00 75 1014.6
20260507191600 76 107 0.0 7.0 0.00 0.00 0.00 77 1015.0
20260507190002 75 100 1.7 7.0 0.00 0.00 0.00 78 1015.3
20260507184600 74 84 1.7 7.0 0.00 0.00 0.00 78 1015.7
20260507183107 74 234 1.7 7.0 0.00 0.00 0.00 78 1015.8
20260507181601 74 93 0.9 4.3 0.00 0.00 0.00 79 1015.8
20260507180100 72 293 0.9 7.8 0.00 0.00 0.00 80 1015.8
20260507173103 71 154 0.0 6.1 0.00 0.00 0.00 81 1016.1
20260507170003 69 217 0.9 4.3 0.00 0.00 0.00 83 1016.5
20260507164612 69 271 0.0 5.2 0.00 0.00 0.00 84 1016.4
20260507163100 69 262 0.0 3.5 0.00 0.00 0.00 84 1016.4
20260507160002 67 34 0.0 3.5 0.00 0.00 0.00 86 1015.9
20260507153059 66 297 0.9 7.8 0.00 0.00 0.00 87 1016.0
20260507151601 66 263 0.9 7.0 0.00 0.00 0.00 87 1016.2
20260507150106 65 194 0.9 5.2 0.00 0.00 0.00 88 1016.5
20260507144600 65 123 0.9 6.1 0.00 0.00 0.00 88 1016.4
20260507143107 65 259 1.7 7.0 0.00 0.00 0.00 89 1016.3
20260507134559 66 355 0.0 3.5 0.00 0.00 0.00 89 1015.1
20260507133101 66 140 1.7 6.1 0.00 0.00 0.00 89 1015.2
20260507130104 67 261 0.9 5.2 0.00 0.00 0.00 89 1015.8
20260507130003 67 275 0.9 5.2 0.00 0.00 0.00 89 1015.8
20260507124559 67 19 1.7 5.2 0.00 0.00 0.00 90 1015.8
20260507123108 67 270 1.7 5.2 0.00 0.00 0.00 89 1015.5
20260507121609 67 82 0.0 6.1 0.00 0.00 0.00 89 1015.2
20260507120059 67 186 0.9 3.5 0.00 0.00 0.00 89 1014.9
20260507114602 67 294 0.9 4.3 0.00 0.00 0.00 89 1014.6
20260507113103 67 260 0.0 3.5 0.00 0.00 0.00 89 1013.9
20260507110118 68 292 0.9 3.5 0.00 0.00 0.00 88 1013.8
20260507110002 68 292 0.9 3.5 0.00 0.00 0.00 88 1013.9
20260507104600 68 256 0.0 3.5 0.00 0.00 0.00 88 1013.5
20260507103059 68 64 0.0 3.5 0.00 0.00 0.00 89 1013.6
20260507101600 67 277 0.9 3.5 0.00 0.00 0.00 89 1013.6
20260507100058 67 229 0.0 1.7 0.00 0.00 0.00 89 1013.3
20260507100001 67 229 0.0 1.7 0.00 0.00 0.00 89 1013.3
20260507094615 67 229 0.0 2.6 0.00 0.00 0.00 89 1013.3
20260507093102 67 293 0.9 3.5 0.00 0.00 0.00 89 1013.0
20260507091631 67 210 0.0 3.5 0.00 0.00 0.00 88 1012.5
20260507090106 67 265 0.9 6.1 0.00 0.00 0.00 88 1012.8
20260507084557 67 259 0.0 4.3 0.00 0.00 0.00 88 1013.0
20260507083057 67 234 0.9 4.3 0.00 0.00 0.00 87 1013.1
20260507074556 68 134 0.0 2.6 0.00 0.00 0.00 87 1012.9
20260507073059 68 277 0.9 7.0 0.00 0.00 0.00 87 1013.2
20260507071655 68 294 1.7 5.2 0.00 0.00 0.00 87 1013.3
20260507070104 68 265 1.7 5.2 0.00 0.00 0.00 86 1013.7
20260507064559 68 275 0.9 4.3 0.00 0.00 0.00 87 1013.4
20260507063057 68 265 1.7 6.1 0.00 0.00 0.00 87 1013.4
20260507061557 68 284 0.9 7.0 0.00 0.00 0.00 86 1013.5
20260507060105 69 215 0.0 6.1 0.00 0.00 0.00 86 1013.1
20260507054558 69 273 1.7 7.0 0.00 0.00 0.00 86 1013.0
20260507053056 69 263 1.7 7.8 0.00 0.00 0.00 86 1013.0
20260507051556 70 190 0.9 6.1 0.00 0.00 0.00 86 1012.8
20260507050100 70 281 1.7 6.1 0.00 0.00 0.00 86 1013.0
20260507050005 70 269 2.6 6.1 0.00 0.00 0.00 86 1013.0
20260507044601 70 271 2.6 7.0 0.00 0.00 0.00 85 1013.1
20260507043101 71 275 0.0 7.0 0.00 0.00 0.00 85 1013.0
20260507041602 71 236 1.7 7.0 0.00 0.00 0.00 85 1012.9
20260507040104 72 225 1.7 6.1 0.00 0.00 0.00 84 1012.8
20260507040001 72 259 1.7 6.1 0.00 0.00 0.00 84 1012.8
20260507034601 72 184 0.0 4.3 0.00 0.00 0.00 84 1012.9
20260507033059 73 285 1.7 6.1 0.00 0.00 0.00 84 1012.6
20260507031600 73 280 2.6 6.1 0.00 0.00 0.00 84 1012.3
20260507030059 73 290 0.9 4.3 0.00 0.00 0.00 84 1011.7
20260507030002 73 290 0.9 6.1 0.00 0.00 0.00 84 1011.7
20260507024601 74 277 1.7 7.8 0.00 0.00 0.00 84 1011.7
20260507023059 74 299 1.7 7.0 0.00 0.00 0.00 84 1011.5
20260507021601 75 286 1.7 6.1 0.00 0.00 0.00 84 1010.9
20260507020058 75 293 0.0 4.3 0.00 0.00 0.00 84 1010.8
20260507020001 75 268 0.9 4.3 0.00 0.00 0.00 84 1010.8
20260507014601 75 270 0.9 5.2 0.00 0.00 0.00 84 1010.6
20260507013057 76 294 1.7 4.3 0.00 0.00 0.00 84 1010.4
20260507011558 76 294 2.6 7.8 0.00 0.00 0.00 84 1010.3
20260507010114 77 292 0.9 7.8 0.00 0.00 0.00 84 1010.1
20260507004558 78 282 1.7 6.1 0.00 0.00 0.00 84 1009.8
20260507003058 78 286 1.7 6.1 0.00 0.00 0.00 84 1009.4
20260507001601 79 302 2.6 8.7 0.00 0.00 0.00 81 1009.1
20260507000105 85 162 0.9 4.3 0.00 0.00 0.00 87 1008.6
20260507000002 85 162 0.9 4.3 0.00 0.00 0.00 86 1008.6
20260506234618 86 162 0.9 4.3 0.00 0.00 0.00 83 1008.5
20260506233104 86 173 0.9 2.6 0.00 0.00 0.00 82 1008.3
20260506231558 86 180 0.9 3.5 0.00 0.00 0.00 83 1008.3
20260506230057 86 175 1.7 3.5 0.00 0.00 0.00 82 1008.2
20260506224558 86 175 0.9 2.6 0.00 0.00 0.00 81 1008.1
20260506223101 87 201 1.7 5.2 0.00 0.00 0.00 81 1008.3
20260506221603 87 167 0.9 7.0 0.00 0.00 0.00 81 1008.2
20260506214609 87 220 3.5 7.0 0.00 0.00 0.00 80 1008.1
20260506213059 87 216 2.6 6.1 0.00 0.00 0.00 81 1008.2
20260506211600 87 172 1.7 7.0 0.00 0.00 0.00 82 1008.2